RADARSAT-2

Last updated on Sat Apr 13 2024 01:02:24 GMT+0100 (British Summer Time)

1 32382U 07061A 24103.60912701 .00000102 00000+0 56309-4 0 9997 2 32382 98.5802 110.9211 0001239 88.0484 272.0840 14.29980023852257
UTC large
Height (km)
Speed (km/s)
/
Latitude / Longitude
Inclination (degrees)
Orbital Period (minutes)
Azimuth
Elevation
Range (km)
Doppler Factor

Next 0 passes for location: London (51.5072 / 0.1276)

Sorry there are no passes over London.